User: anonymous   Login
Location: Caltech
(34.1382°N, 118.1253°W)
Time: 05:45:30
(UTC-07:00)
Language:

Cosmos 676 Rocket - Orbit

View from above orbital plane
View from above orbital plane
View from above satellite
View from above satellite

Ground track
Ground track

The orbit data is extracted from the following two-line orbital elements,

1 07434U 74071B   15181.18230379  .00000040  00000-0  22633-4 0  9990
2 07434 074.0481 092.4598 0020962 183.3671 176.7345 14.36476114133602
Epoch (UTC): 30 June 2015 04:22:31
Eccentricity: 0.0020962
inclination: 74.0481°
perigee height: 755 km
apogee height: 785 km
right ascension of ascending node: 92.4598°
argument of perigee: 183.3671°
revolutions per day: 14.36476114
mean anomaly at epoch: 176.7345°
orbit number at epoch: 13360

The dashed part of the orbit path shows where the satellite is in the earth's shadow,  

DLR